Time,TemperatureF,DewpointF,PressureIn,WindDirection,WindDirectionDegrees,WindSpeedMPH,WindSpeedGustMPH,Humidity,HourlyPrecipIn,Conditions,Clouds,dailyrainin,SoftwareType,DateUTC
2013-04-12 00:04:00,37.1,35.3,29.62,West,260,7.0,10.0,93,0.00,,,0.00,Wunderground v.1.15,2013-04-12 05:04:00,
2013-04-12 00:10:00,37.1,35.3,29.62,West,263,6.0,6.0,93,0.00,,,0.00,Wunderground v.1.15,2013-04-12 05:10:00,
2013-04-12 00:15:00,37.1,35.3,29.62,West,271,6.0,10.0,93,0.00,,,0.00,Wunderground v.1.15,2013-04-12 05:15:00,
2013-04-12 00:21:00,37.1,35.3,29.62,WSW,244,6.0,7.0,93,0.00,,,0.00,Wunderground v.1.15,2013-04-12 05:21:00,
2013-04-12 00:26:00,37.1,35.3,29.62,West,263,7.0,10.0,93,0.00,,,0.00,Wunderground v.1.15,2013-04-12 05:26:00,
2013-04-12 00:32:00,37.0,34.9,29.62,West,261,7.0,11.0,92,0.00,,,0.00,Wunderground v.1.15,2013-04-12 05:32:00,
2013-04-12 00:39:00,37.1,34.7,29.63,West,279,8.0,12.0,91,0.00,,,0.00,Wunderground v.1.15,2013-04-12 05:39:00,
2013-04-12 00:44:00,37.0,34.6,29.62,WSW,246,9.0,10.0,91,0.00,,,0.00,Wunderground v.1.15,2013-04-12 05:44:00,
2013-04-12 00:49:00,37.0,34.6,29.62,WSW,257,7.0,12.0,91,0.00,,,0.00,Wunderground v.1.15,2013-04-12 05:49:00,
2013-04-12 00:55:00,37.0,34.6,29.62,West,261,7.0,10.0,91,0.00,,,0.00,Wunderground v.1.15,2013-04-12 05:55:00,
2013-04-12 01:00:00,37.0,34.6,29.62,WSW,253,8.0,8.0,91,0.00,,,0.00,Wunderground v.1.15,2013-04-12 06:00:00,
2013-04-12 01:05:00,36.9,34.2,29.62,WSW,244,9.0,13.0,90,0.00,,,0.00,Wunderground v.1.15,2013-04-12 06:05:00,
2013-04-12 01:10:00,36.9,34.2,29.62,WSW,246,9.0,10.0,90,0.00,,,0.00,Wunderground v.1.15,2013-04-12 06:10:00,
2013-04-12 01:15:00,36.8,33.9,29.62,WSW,257,9.0,11.0,89,0.00,,,0.00,Wunderground v.1.15,2013-04-12 06:15:00,
2013-04-12 01:21:00,36.8,33.9,29.62,West,281,9.0,15.0,89,0.00,,,0.00,Wunderground v.1.15,2013-04-12 06:21:00,
2013-04-12 01:26:00,36.7,33.8,29.62,SW,231,9.0,15.0,89,0.00,,,0.00,Wunderground v.1.15,2013-04-12 06:26:00,
2013-04-12 01:31:00,36.7,33.8,29.62,WSW,241,9.0,14.0,89,0.00,,,0.00,Wunderground v.1.15,2013-04-12 06:31:00,
2013-04-12 01:36:00,36.7,33.8,29.62,West,261,9.0,14.0,89,0.00,,,0.00,Wunderground v.1.15,2013-04-12 06:36:00,
2013-04-12 01:42:00,36.6,33.7,29.62,WSW,246,9.0,11.0,89,0.00,,,0.00,Wunderground v.1.15,2013-04-12 06:42:00,
2013-04-12 01:49:00,36.6,33.7,29.62,WSW,237,9.0,12.0,89,0.00,,,0.00,Wunderground v.1.15,2013-04-12 06:49:00,
2013-04-12 01:55:00,36.6,33.9,29.62,WSW,240,9.0,11.0,90,0.00,,,0.00,Wunderground v.1.15,2013-04-12 06:55:00,
2013-04-12 02:00:00,36.5,33.8,29.62,WNW,286,9.0,9.0,90,0.00,,,0.00,Wunderground v.1.15,2013-04-12 07:00:00,
2013-04-12 02:05:00,36.5,33.8,29.62,WSW,254,9.0,15.0,90,0.00,,,0.00,Wunderground v.1.15,2013-04-12 07:05:00,
2013-04-12 02:11:00,36.5,33.8,29.61,WSW,238,9.0,10.0,90,0.00,,,0.00,Wunderground v.1.15,2013-04-12 07:11:00,
2013-04-12 02:17:00,36.5,33.6,29.61,West,267,8.0,11.0,89,0.00,,,0.00,Wunderground v.1.15,2013-04-12 07:17:00,
2013-04-12 02:24:00,36.4,33.5,29.61,SW,232,8.0,13.0,89,0.00,,,0.00,Wunderground v.1.15,2013-04-12 07:24:00,
2013-04-12 02:29:00,36.4,33.5,29.61,SW,231,9.0,13.0,89,0.00,,,0.00,Wunderground v.1.15,2013-04-12 07:29:00,
2013-04-12 02:35:00,36.4,33.2,29.61,WSW,255,10.0,17.0,88,0.00,,,0.00,Wunderground v.1.15,2013-04-12 07:35:00,
2013-04-12 02:40:00,36.4,33.5,29.61,WSW,250,9.0,9.0,89,0.00,,,0.00,Wunderground v.1.15,2013-04-12 07:40:00,
2013-04-12 02:45:00,36.3,33.4,29.61,West,262,7.0,10.0,89,0.00,,,0.00,Wunderground v.1.15,2013-04-12 07:45:00,
2013-04-12 02:50:00,36.3,33.4,29.60,WNW,287,7.0,7.0,89,0.00,,,0.00,Wunderground v.1.15,2013-04-12 07:50:00,
2013-04-12 02:55:00,36.2,33.3,29.60,SW,228,7.0,11.0,89,0.00,,,0.00,Wunderground v.1.15,2013-04-12 07:55:00,
2013-04-12 03:00:00,36.2,33.3,29.60,SW,228,6.0,7.0,89,0.00,,,0.00,Wunderground v.1.15,2013-04-12 08:00:00,
2013-04-12 03:06:00,36.2,33.3,29.60,WSW,249,6.0,9.0,89,0.00,,,0.00,Wunderground v.1.15,2013-04-12 08:06:00,
2013-04-12 03:12:00,36.1,33.5,29.60,WSW,242,7.0,10.0,90,0.00,,,0.00,Wunderground v.1.15,2013-04-12 08:12:00,
2013-04-12 03:19:00,36.1,33.5,29.60,West,259,7.0,10.0,90,0.00,,,0.00,Wunderground v.1.15,2013-04-12 08:19:00,
2013-04-12 03:24:00,36.1,33.7,29.60,WSW,244,7.0,8.0,91,0.00,,,0.00,Wunderground v.1.15,2013-04-12 08:24:00,
2013-04-12 03:29:00,36.1,33.7,29.59,WSW,246,6.0,9.0,91,0.00,,,0.00,Wunderground v.1.15,2013-04-12 08:29:00,
2013-04-12 03:35:00,36.1,33.7,29.59,WSW,246,7.0,11.0,91,0.00,,,0.00,Wunderground v.1.15,2013-04-12 08:35:00,
2013-04-12 03:40:00,36.1,33.7,29.59,WSW,257,8.0,8.0,91,0.00,,,0.00,Wunderground v.1.15,2013-04-12 08:40:00,
2013-04-12 03:45:00,36.1,33.7,29.59,WNW,293,8.0,10.0,91,0.00,,,0.00,Wunderground v.1.15,2013-04-12 08:45:00,
2013-04-12 03:50:00,36.1,33.7,29.59,WSW,239,8.0,12.0,91,0.00,,,0.00,Wunderground v.1.15,2013-04-12 08:50:00,
2013-04-12 03:55:00,36.1,33.7,29.59,WSW,246,8.0,12.0,91,0.00,,,0.00,Wunderground v.1.15,2013-04-12 08:55:00,
2013-04-12 04:02:00,36.1,34.0,29.59,WSW,250,7.0,9.0,92,0.00,,,0.00,Wunderground v.1.15,2013-04-12 09:02:00,
2013-04-12 04:07:00,36.0,33.9,29.59,SW,231,6.0,10.0,92,0.00,,,0.00,Wunderground v.1.15,2013-04-12 09:07:00,
2013-04-12 04:12:00,36.0,33.6,29.59,WSW,254,7.0,15.0,91,0.00,,,0.00,Wunderground v.1.15,2013-04-12 09:12:00,
2013-04-12 04:19:00,36.0,33.6,29.59,SW,217,8.0,15.0,91,0.00,,,0.00,Wunderground v.1.15,2013-04-12 09:19:00,
2013-04-12 04:25:00,36.0,33.6,29.59,WSW,255,8.0,9.0,91,0.00,,,0.00,Wunderground v.1.15,2013-04-12 09:25:00,
2013-04-12 04:30:00,36.0,33.6,29.59,SW,234,7.0,10.0,91,0.00,,,0.00,Wunderground v.1.15,2013-04-12 09:30:00,
2013-04-12 04:35:00,36.0,33.6,29.58,West,271,7.0,10.0,91,0.00,,,0.00,Wunderground v.1.15,2013-04-12 09:35:00,
2013-04-12 04:41:00,35.9,33.5,29.58,SSW,209,7.0,11.0,91,0.00,,,0.00,Wunderground v.1.15,2013-04-12 09:41:00,
2013-04-12 04:46:00,35.9,33.5,29.58,South,186,7.0,11.0,91,0.00,,,0.00,Wunderground v.1.15,2013-04-12 09:46:00,
2013-04-12 04:51:00,35.9,33.5,29.58,SSW,211,7.0,9.0,91,0.00,,,0.00,Wunderground v.1.15,2013-04-12 09:51:00,
2013-04-12 04:57:00,35.8,33.4,29.58,SW,236,8.0,9.0,91,0.00,,,0.00,Wunderground v.1.15,2013-04-12 09:57:00,
2013-04-12 05:02:00,35.8,33.4,29.58,West,268,7.0,10.0,91,0.00,,,0.00,Wunderground v.1.15,2013-04-12 10:02:00,
2013-04-12 05:07:00,35.8,33.4,29.58,SW,230,7.0,10.0,91,0.00,,,0.00,Wunderground v.1.15,2013-04-12 10:07:00,
2013-04-12 05:12:00,35.8,33.4,29.58,SW,231,7.0,11.0,91,0.00,,,0.00,Wunderground v.1.15,2013-04-12 10:12:00,
2013-04-12 05:17:00,35.7,33.3,29.58,SW,223,7.0,11.0,91,0.00,,,0.00,Wunderground v.1.15,2013-04-12 10:17:00,
2013-04-12 05:24:00,35.7,33.3,29.58,SW,231,7.0,8.0,91,0.00,,,0.00,Wunderground v.1.15,2013-04-12 10:24:00,
2013-04-12 05:29:00,35.6,33.2,29.58,SW,232,7.0,9.0,91,0.00,,,0.00,Wunderground v.1.15,2013-04-12 10:29:00,
2013-04-12 05:34:00,35.6,33.5,29.58,SW,230,8.0,13.0,92,0.00,,,0.00,Wunderground v.1.15,2013-04-12 10:34:00,
2013-04-12 05:40:00,35.6,33.5,29.58,WSW,241,7.0,7.0,92,0.00,,,0.00,Wunderground v.1.15,2013-04-12 10:40:00,
2013-04-12 05:45:00,35.7,33.6,29.58,SW,223,7.0,12.0,92,0.00,,,0.00,Wunderground v.1.15,2013-04-12 10:45:00,
2013-04-12 05:50:00,35.7,33.6,29.58,West,269,8.0,10.0,92,0.00,,,0.00,Wunderground v.1.15,2013-04-12 10:50:00,
2013-04-12 05:55:00,35.7,33.9,29.58,South,186,8.0,10.0,93,0.00,,,0.00,Wunderground v.1.15,2013-04-12 10:55:00,
2013-04-12 06:00:00,35.7,33.9,29.58,WSW,258,8.0,9.0,93,0.00,,,0.00,Wunderground v.1.15,2013-04-12 11:00:00,
2013-04-12 06:06:00,35.7,33.9,29.58,WSW,238,8.0,9.0,93,0.00,,,0.00,Wunderground v.1.15,2013-04-12 11:06:00,
2013-04-12 06:12:00,35.7,33.9,29.58,WSW,239,7.0,10.0,93,0.00,,,0.00,Wunderground v.1.15,2013-04-12 11:12:00,
2013-04-12 06:17:00,35.7,33.9,29.58,SW,232,7.0,10.0,93,0.00,,,0.00,Wunderground v.1.15,2013-04-12 11:17:00,
2013-04-12 06:22:00,35.8,34.0,29.58,West,261,7.0,7.0,93,0.00,,,0.00,Wunderground v.1.15,2013-04-12 11:22:00,
2013-04-12 06:29:00,35.9,34.1,29.58,WSW,240,6.0,10.0,93,0.00,,,0.00,Wunderground v.1.15,2013-04-12 11:29:00,
2013-04-12 06:35:00,35.9,34.1,29.58,SW,235,7.0,9.0,93,0.00,,,0.00,Wunderground v.1.15,2013-04-12 11:35:00,
2013-04-12 06:40:00,35.9,34.1,29.59,WNW,282,6.0,6.0,93,0.00,,,0.00,Wunderground v.1.15,2013-04-12 11:40:00,
2013-04-12 06:45:00,36.0,34.2,29.59,WSW,248,7.0,10.0,93,0.00,,,0.00,Wunderground v.1.15,2013-04-12 11:45:00,
2013-04-12 06:50:00,36.0,34.2,29.59,NW,306,7.0,7.0,93,0.00,,,0.00,Wunderground v.1.15,2013-04-12 11:50:00,
2013-04-12 06:55:00,36.1,34.3,29.59,WNW,286,7.0,11.0,93,0.00,,,0.00,Wunderground v.1.15,2013-04-12 11:55:00,
2013-04-12 07:00:00,36.1,34.3,29.59,West,265,6.0,9.0,93,0.00,,,0.00,Wunderground v.1.15,2013-04-12 12:00:00,
2013-04-12 07:05:00,36.2,34.4,29.59,SW,236,6.0,11.0,93,0.00,,,0.00,Wunderground v.1.15,2013-04-12 12:05:00,
2013-04-12 07:11:00,36.2,34.4,29.60,WSW,240,7.0,8.0,93,0.00,,,0.00,Wunderground v.1.15,2013-04-12 12:11:00,
2013-04-12 07:16:00,36.3,34.2,29.60,WSW,243,7.0,10.0,92,0.00,,,0.00,Wunderground v.1.15,2013-04-12 12:16:00,
2013-04-12 07:21:00,36.3,34.5,29.61,WSW,240,7.0,10.0,93,0.00,,,0.00,Wunderground v.1.15,2013-04-12 12:21:00,
2013-04-12 07:27:00,36.3,34.5,29.60,WSW,238,7.0,11.0,93,0.00,,,0.00,Wunderground v.1.15,2013-04-12 12:27:00,
2013-04-12 07:33:00,36.3,34.5,29.61,SW,236,8.0,15.0,93,0.00,,,0.00,Wunderground v.1.15,2013-04-12 12:33:00,
2013-04-12 07:39:00,36.5,34.7,29.61,West,268,7.0,15.0,93,0.00,,,0.00,Wunderground v.1.15,2013-04-12 12:39:00,
2013-04-12 07:44:00,36.6,34.8,29.61,WSW,254,7.0,8.0,93,0.00,,,0.00,Wunderground v.1.15,2013-04-12 12:44:00,
2013-04-12 07:50:00,36.7,34.9,29.61,WSW,238,7.0,7.0,93,0.00,,,0.00,Wunderground v.1.15,2013-04-12 12:50:00,
2013-04-12 07:55:00,36.8,35.0,29.61,SW,227,7.0,12.0,93,0.00,,,0.00,Wunderground v.1.15,2013-04-12 12:55:00,
2013-04-12 08:00:00,36.9,35.1,29.61,SW,234,7.0,7.0,93,0.00,,,0.00,Wunderground v.1.15,2013-04-12 13:00:00,
2013-04-12 08:06:00,37.1,35.3,29.61,SSW,209,6.0,7.0,93,0.00,,,0.00,Wunderground v.1.15,2013-04-12 13:06:00,
2013-04-12 08:11:00,37.2,35.4,29.61,SSW,199,6.0,8.0,93,0.00,,,0.00,Wunderground v.1.15,2013-04-12 13:11:00,
2013-04-12 08:17:00,37.2,35.4,29.62,SW,225,6.0,9.0,93,0.00,,,0.00,Wunderground v.1.15,2013-04-12 13:17:00,
2013-04-12 08:24:00,37.3,35.7,29.62,South,182,6.0,6.0,94,0.00,,,0.00,Wunderground v.1.15,2013-04-12 13:24:00,
2013-04-12 08:30:00,37.3,35.7,29.62,WSW,250,7.0,12.0,94,0.00,,,0.00,Wunderground v.1.15,2013-04-12 13:30:00,
2013-04-12 08:35:00,37.6,36.0,29.62,SSW,196,8.0,12.0,94,0.00,,,0.00,Wunderground v.1.15,2013-04-12 13:35:00,
2013-04-12 08:40:00,37.8,36.2,29.62,SSW,208,8.0,8.0,94,0.00,,,0.00,Wunderground v.1.15,2013-04-12 13:40:00,
2013-04-12 08:46:00,37.9,36.3,29.62,West,261,8.0,10.0,94,0.00,,,0.00,Wunderground v.1.15,2013-04-12 13:46:00,
2013-04-12 08:52:00,38.0,36.4,29.62,SW,234,7.0,10.0,94,0.00,,,0.00,Wunderground v.1.15,2013-04-12 13:52:00,
2013-04-12 08:57:00,38.0,36.4,29.62,SSW,207,8.0,10.0,94,0.00,,,0.00,Wunderground v.1.15,2013-04-12 13:57:00,
2013-04-12 09:04:00,38.2,36.6,29.62,SW,221,9.0,14.0,94,0.00,,,0.00,Wunderground v.1.15,2013-04-12 14:04:00,
2013-04-12 09:09:00,38.3,36.7,29.62,WSW,243,10.0,15.0,94,0.00,,,0.00,Wunderground v.1.15,2013-04-12 14:09:00,
2013-04-12 09:15:00,38.3,36.7,29.63,West,271,10.0,13.0,94,0.00,,,0.00,Wunderground v.1.15,2013-04-12 14:15:00,
2013-04-12 09:20:00,38.2,36.6,29.63,SW,225,10.0,12.0,94,0.00,,,0.00,Wunderground v.1.15,2013-04-12 14:20:00,
2013-04-12 09:26:00,38.2,36.9,29.63,West,268,10.0,14.0,95,0.00,,,0.00,Wunderground v.1.15,2013-04-12 14:26:00,
2013-04-12 09:34:00,38.2,36.9,29.63,SW,222,9.0,12.0,95,0.00,,,0.00,Wunderground v.1.15,2013-04-12 14:34:00,
2013-04-12 09:39:00,38.4,37.1,29.63,NW,311,10.0,14.0,95,0.00,,,0.00,Wunderground v.1.15,2013-04-12 14:39:00,
2013-04-12 09:45:00,38.6,37.3,29.63,West,274,9.0,12.0,95,0.00,,,0.00,Wunderground v.1.15,2013-04-12 14:45:00,
2013-04-12 09:50:00,38.7,37.4,29.63,WSW,244,7.0,7.0,95,0.00,,,0.00,Wunderground v.1.15,2013-04-12 14:50:00,
2013-04-12 09:55:00,38.8,37.5,29.63,WSW,242,6.0,10.0,95,0.00,,,0.00,Wunderground v.1.15,2013-04-12 14:55:00,
2013-04-12 10:00:00,38.7,37.1,29.64,WSW,256,7.0,10.0,94,0.00,,,0.00,Wunderground v.1.15,2013-04-12 15:00:00,
2013-04-12 10:06:00,38.8,37.2,29.63,SW,222,9.0,13.0,94,0.00,,,0.00,Wunderground v.1.15,2013-04-12 15:06:00,
2013-04-12 10:11:00,39.0,37.1,29.63,SW,215,10.0,12.0,93,0.00,,,0.00,Wunderground v.1.15,2013-04-12 15:11:00,
2013-04-12 10:16:00,39.1,37.2,29.64,West,267,9.0,12.0,93,0.00,,,0.00,Wunderground v.1.15,2013-04-12 15:16:00,
2013-04-12 10:23:00,39.2,37.1,29.64,WSW,257,8.0,10.0,92,0.00,,,0.00,Wunderground v.1.15,2013-04-12 15:23:00,
2013-04-12 10:29:00,39.3,37.2,29.64,WSW,251,8.0,10.0,92,0.00,,,0.00,Wunderground v.1.15,2013-04-12 15:29:00,
2013-04-12 10:35:00,39.4,37.5,29.64,SW,215,8.0,11.0,93,0.00,,,0.00,Wunderground v.1.15,2013-04-12 15:35:00,
2013-04-12 10:40:00,39.9,38.0,29.64,SW,227,8.0,8.0,93,0.00,,,0.00,Wunderground v.1.15,2013-04-12 15:40:00,
2013-04-12 10:45:00,40.5,38.4,29.64,SSW,199,9.0,13.0,92,0.00,,,0.00,Wunderground v.1.15,2013-04-12 15:45:00,
2013-04-12 10:50:00,41.1,39.0,29.64,SW,223,11.0,17.0,92,0.00,,,0.00,Wunderground v.1.15,2013-04-12 15:50:00,
2013-04-12 10:55:00,41.5,39.1,29.64,SW,233,11.0,17.0,91,0.00,,,0.00,Wunderground v.1.15,2013-04-12 15:55:00,
2013-04-12 11:00:00,41.4,38.1,29.64,SSW,212,10.0,15.0,88,0.00,,,0.00,Wunderground v.1.15,2013-04-12 16:00:00,
2013-04-12 11:06:00,41.6,38.3,29.65,West,271,12.0,17.0,88,0.00,,,0.00,Wunderground v.1.15,2013-04-12 16:06:00,
2013-04-12 11:11:00,41.6,38.0,29.65,WNW,290,11.0,11.0,87,0.00,,,0.00,Wunderground v.1.15,2013-04-12 16:11:00,
2013-04-12 11:16:00,41.6,37.7,29.65,WSW,252,10.0,13.0,86,0.00,,,0.00,Wunderground v.1.15,2013-04-12 16:16:00,
2013-04-12 11:21:00,41.7,38.1,29.65,South,190,10.0,11.0,87,0.00,,,0.00,Wunderground v.1.15,2013-04-12 16:21:00,
2013-04-12 11:27:00,41.5,37.3,29.65,WSW,243,11.0,16.0,85,0.00,,,0.00,Wunderground v.1.15,2013-04-12 16:27:00,
2013-04-12 11:32:00,41.1,37.2,29.66,West,264,12.0,17.0,86,0.00,,,0.00,Wunderground v.1.15,2013-04-12 16:32:00,
2013-04-12 11:39:00,41.2,37.3,29.66,SW,232,9.0,17.0,86,0.00,,,0.00,Wunderground v.1.15,2013-04-12 16:39:00,
2013-04-12 11:44:00,40.9,37.0,29.66,WSW,238,11.0,15.0,86,0.00,,,0.00,Wunderground v.1.15,2013-04-12 16:44:00,
2013-04-12 11:50:00,40.6,37.3,29.66,WSW,252,10.0,16.0,88,0.00,,,0.00,Wunderground v.1.15,2013-04-12 16:50:00,
2013-04-12 11:55:00,40.5,37.5,29.66,SSE,163,9.0,16.0,89,0.00,,,0.00,Wunderground v.1.15,2013-04-12 16:55:00,
2013-04-12 12:02:00,40.6,37.6,29.66,WNW,284,9.0,9.0,89,0.00,,,0.00,Wunderground v.1.15,2013-04-12 17:02:00,
2013-04-12 12:07:00,40.6,37.9,29.66,WSW,244,8.0,13.0,90,0.00,,,0.00,Wunderground v.1.15,2013-04-12 17:07:00,
2013-04-12 12:14:00,41.0,38.6,29.67,SSW,210,8.0,10.0,91,0.00,,,0.00,Wunderground v.1.15,2013-04-12 17:14:00,
2013-04-12 12:20:00,40.9,38.2,29.67,West,263,9.0,10.0,90,0.00,,,0.00,Wunderground v.1.15,2013-04-12 17:20:00,
2013-04-12 12:25:00,40.6,38.5,29.67,WSW,241,11.0,15.0,92,0.00,,,0.00,Wunderground v.1.15,2013-04-12 17:25:00,
2013-04-12 12:31:00,40.5,38.4,29.67,WSW,252,10.0,11.0,92,0.00,,,0.00,Wunderground v.1.15,2013-04-12 17:31:00,
2013-04-12 12:36:00,40.3,38.2,29.67,WSW,255,10.0,16.0,92,0.00,,,0.00,Wunderground v.1.15,2013-04-12 17:36:00,
2013-04-12 12:41:00,40.4,38.3,29.67,West,260,10.0,15.0,92,0.00,,,0.00,Wunderground v.1.15,2013-04-12 17:41:00,
2013-04-12 12:47:00,40.5,38.4,29.67,WSW,248,8.0,15.0,92,0.00,,,0.00,Wunderground v.1.15,2013-04-12 17:47:00,
2013-04-12 12:54:00,40.3,38.2,29.68,WSW,255,8.0,18.0,92,0.00,,,0.00,Wunderground v.1.15,2013-04-12 17:54:00,
2013-04-12 13:00:00,40.7,38.3,29.68,WSW,257,12.0,12.0,91,0.00,,,0.00,Wunderground v.1.15,2013-04-12 18:00:00,
2013-04-12 13:05:00,40.5,37.8,29.68,WSW,251,13.0,17.0,90,0.00,,,0.00,Wunderground v.1.15,2013-04-12 18:05:00,
2013-04-12 13:10:00,40.0,37.6,29.68,WSW,244,15.0,15.0,91,0.00,,,0.00,Wunderground v.1.15,2013-04-12 18:10:00,
2013-04-12 13:20:00,40.1,38.0,29.69,NW,321,12.0,12.0,92,0.00,,,0.00,Wunderground v.1.15,2013-04-12 18:20:00,
2013-04-12 13:26:00,40.3,38.2,29.69,WNW,289,11.0,18.0,92,0.00,,,0.00,Wunderground v.1.15,2013-04-12 18:26:00,
2013-04-12 14:26:00,39.2,37.6,29.72,WNW,297,11.0,18.0,94,0.00,,,0.01,Wunderground v.1.15,2013-04-12 19:26:00,
2013-04-12 14:29:00,39.2,37.6,29.72,WNW,289,11.0,19.0,94,0.00,,,0.01,Wunderground v.1.15,2013-04-12 19:29:00,
2013-04-12 14:30:00,39.2,37.6,29.72,West,269,12.0,12.0,94,0.00,,,0.01,Wunderground v.1.15,2013-04-12 19:30:00,
2013-04-12 14:31:00,39.2,37.3,29.72,West,263,12.0,15.0,93,0.00,,,0.01,Wunderground v.1.15,2013-04-12 19:31:00,
2013-04-12 14:36:00,39.3,37.7,29.73,West,281,12.0,20.0,94,0.00,,,0.01,Wunderground v.1.15,2013-04-12 19:36:00,
2013-04-12 14:42:00,39.4,37.5,29.73,WSW,241,12.0,17.0,93,0.00,,,0.01,Wunderground v.1.15,2013-04-12 19:42:00,
2013-04-12 14:47:00,39.3,37.2,29.73,WSW,244,12.0,25.0,92,0.00,,,0.01,Wunderground v.1.15,2013-04-12 19:47:00,
2013-04-12 14:54:00,39.5,36.5,29.73,West,268,13.0,16.0,89,0.00,,,0.01,Wunderground v.1.15,2013-04-12 19:54:00,
2013-04-12 15:00:00,39.7,36.7,29.74,West,281,11.0,12.0,89,0.00,,,0.01,Wunderground v.1.15,2013-04-12 20:00:00,
2013-04-12 15:05:00,39.6,36.0,29.74,West,260,11.0,16.0,87,0.00,,,0.01,Wunderground v.1.15,2013-04-12 20:05:00,
2013-04-12 15:11:00,39.5,36.0,29.74,WSW,245,12.0,12.0,87,0.00,,,0.01,Wunderground v.1.15,2013-04-12 20:11:00,
2013-04-12 15:16:00,39.4,36.1,29.75,West,265,12.0,12.0,88,0.00,,,0.01,Wunderground v.1.15,2013-04-12 20:16:00,
2013-04-12 15:22:00,39.3,35.8,29.74,WNW,297,11.0,15.0,87,0.00,,,0.01,Wunderground v.1.15,2013-04-12 20:22:00,
2013-04-12 15:27:00,39.4,35.6,29.75,NW,317,12.0,21.0,86,0.00,,,0.01,Wunderground v.1.15,2013-04-12 20:27:00,
2013-04-12 15:34:00,39.4,35.0,29.75,West,261,11.0,19.0,84,0.00,,,0.01,Wunderground v.1.15,2013-04-12 20:34:00,
2013-04-12 15:39:00,39.1,34.7,29.75,South,176,12.0,22.0,84,0.00,,,0.01,Wunderground v.1.15,2013-04-12 20:39:00,
2013-04-12 15:45:00,39.3,34.9,29.75,West,264,12.0,20.0,84,0.00,,,0.01,Wunderground v.1.15,2013-04-12 20:45:00,
2013-04-12 15:50:00,39.7,35.0,29.75,WNW,292,11.0,13.0,83,0.00,,,0.01,Wunderground v.1.15,2013-04-12 20:50:00,
2013-04-12 15:55:00,39.6,35.2,29.75,West,267,10.0,19.0,84,0.00,,,0.01,Wunderground v.1.15,2013-04-12 20:55:00,
2013-04-12 16:00:00,39.5,34.8,29.76,SW,232,11.0,21.0,83,0.00,,,0.01,Wunderground v.1.15,2013-04-12 21:00:00,
2013-04-12 16:05:00,39.3,34.3,29.76,SW,219,13.0,21.0,82,0.00,,,0.01,Wunderground v.1.15,2013-04-12 21:05:00,
2013-04-12 16:10:00,39.3,34.3,29.76,WSW,244,14.0,21.0,82,0.00,,,0.01,Wunderground v.1.15,2013-04-12 21:10:00,
2013-04-12 16:16:00,39.2,34.2,29.77,WSW,252,12.0,21.0,82,0.00,,,0.01,Wunderground v.1.15,2013-04-12 21:16:00,
2013-04-12 16:21:00,39.2,33.9,29.77,WSW,248,11.0,15.0,81,0.00,,,0.01,Wunderground v.1.15,2013-04-12 21:21:00,
2013-04-12 16:26:00,39.1,33.8,29.77,WNW,295,12.0,19.0,81,0.00,,,0.01,Wunderground v.1.15,2013-04-12 21:26:00,
2013-04-12 16:32:00,38.8,33.5,29.78,West,263,12.0,19.0,81,0.00,,,0.01,Wunderground v.1.15,2013-04-12 21:32:00,
2013-04-12 16:39:00,38.5,33.2,29.78,WNW,292,12.0,20.0,81,0.00,,,0.01,Wunderground v.1.15,2013-04-12 21:39:00,
2013-04-12 16:44:00,38.4,33.1,29.78,West,259,13.0,17.0,81,0.00,,,0.01,Wunderground v.1.15,2013-04-12 21:44:00,
2013-04-12 16:50:00,39.0,33.4,29.78,SW,234,12.0,14.0,80,0.00,,,0.01,Wunderground v.1.15,2013-04-12 21:50:00,
2013-04-12 16:55:00,38.9,33.6,29.79,WSW,245,11.0,22.0,81,0.00,,,0.01,Wunderground v.1.15,2013-04-12 21:55:00,
2013-04-12 17:00:00,38.7,33.1,29.79,WSW,252,12.0,12.0,80,0.00,,,0.01,Wunderground v.1.15,2013-04-12 22:00:00,
2013-04-12 17:06:00,38.7,32.4,29.79,SE,130,12.0,16.0,78,0.00,,,0.01,Wunderground v.1.15,2013-04-12 22:06:00,
2013-04-12 17:11:00,38.6,32.6,29.80,WNW,286,12.0,19.0,79,0.00,,,0.01,Wunderground v.1.15,2013-04-12 22:11:00,
2013-04-12 17:16:00,38.7,32.7,29.80,WSW,240,12.0,19.0,79,0.00,,,0.01,Wunderground v.1.15,2013-04-12 22:16:00,
2013-04-12 17:22:00,38.8,32.5,29.80,NW,308,10.0,15.0,78,0.00,,,0.01,Wunderground v.1.15,2013-04-12 22:22:00,
2013-04-12 17:29:00,38.6,32.3,29.81,WSW,252,11.0,15.0,78,0.00,,,0.01,Wunderground v.1.15,2013-04-12 22:29:00,
2013-04-12 17:34:00,38.7,33.1,29.81,WNW,284,10.0,16.0,80,0.00,,,0.01,Wunderground v.1.15,2013-04-12 22:34:00,
2013-04-12 17:40:00,38.8,32.8,29.81,West,276,9.0,14.0,79,0.00,,,0.01,Wunderground v.1.15,2013-04-12 22:40:00,
2013-04-12 17:45:00,38.7,32.1,29.81,SW,217,10.0,14.0,77,0.00,,,0.01,Wunderground v.1.15,2013-04-12 22:45:00,
2013-04-12 17:50:00,38.6,32.6,29.81,WSW,243,11.0,12.0,79,0.00,,,0.01,Wunderground v.1.15,2013-04-12 22:50:00,
2013-04-12 17:55:00,38.6,33.0,29.81,West,268,10.0,14.0,80,0.00,,,0.01,Wunderground v.1.15,2013-04-12 22:55:00,
2013-04-12 18:01:00,38.7,32.7,29.81,West,261,10.0,12.0,79,0.00,,,0.01,Wunderground v.1.15,2013-04-12 23:01:00,
2013-04-12 18:06:00,38.7,33.1,29.81,WSW,240,9.0,14.0,80,0.00,,,0.01,Wunderground v.1.15,2013-04-12 23:06:00,
2013-04-12 18:12:00,38.7,33.1,29.81,West,278,8.0,17.0,80,0.00,,,0.01,Wunderground v.1.15,2013-04-12 23:12:00,
2013-04-12 18:19:00,38.7,33.1,29.81,West,269,8.0,17.0,80,0.00,,,0.01,Wunderground v.1.15,2013-04-12 23:19:00,
2013-04-12 18:24:00,38.7,33.1,29.81,WNW,287,7.0,11.0,80,0.00,,,0.01,Wunderground v.1.15,2013-04-12 23:24:00,
2013-04-12 18:30:00,38.6,33.3,29.82,SSW,202,7.0,7.0,81,0.00,,,0.01,Wunderground v.1.15,2013-04-12 23:30:00,
2013-04-12 18:35:00,38.6,33.3,29.82,West,261,6.0,8.0,81,0.00,,,0.01,Wunderground v.1.15,2013-04-12 23:35:00,
2013-04-12 18:40:00,38.6,33.3,29.82,WNW,303,7.0,11.0,81,0.00,,,0.01,Wunderground v.1.15,2013-04-12 23:40:00,
2013-04-12 18:45:00,38.6,33.3,29.82,WNW,285,7.0,11.0,81,0.00,,,0.01,Wunderground v.1.15,2013-04-12 23:45:00,
2013-04-12 18:50:00,38.5,33.2,29.82,West,261,7.0,7.0,81,0.00,,,0.01,Wunderground v.1.15,2013-04-12 23:50:00,
2013-04-12 18:56:00,38.5,33.2,29.83,West,262,7.0,11.0,81,0.00,,,0.01,Wunderground v.1.15,2013-04-12 23:56:00,
2013-04-12 19:02:00,38.5,33.2,29.83,WNW,282,6.0,12.0,81,0.00,,,0.01,Wunderground v.1.15,2013-04-13 00:02:00,
2013-04-12 19:07:00,38.5,32.9,29.83,WSW,252,7.0,12.0,80,0.00,,,0.01,Wunderground v.1.15,2013-04-13 00:07:00,
2013-04-12 19:14:00,38.5,33.2,29.83,West,277,7.0,7.0,81,0.00,,,0.01,Wunderground v.1.15,2013-04-13 00:14:00,
2013-04-12 19:19:00,38.4,33.4,29.83,WSW,244,6.0,7.0,82,0.00,,,0.01,Wunderground v.1.15,2013-04-13 00:19:00,
2013-04-12 19:25:00,38.4,33.4,29.83,WSW,257,5.0,7.0,82,0.00,,,0.01,Wunderground v.1.15,2013-04-13 00:25:00,
2013-04-12 19:30:00,38.4,33.4,29.83,West,262,5.0,5.0,82,0.00,,,0.01,Wunderground v.1.15,2013-04-13 00:30:00,
2013-04-12 19:36:00,38.3,33.3,29.83,NW,315,5.0,10.0,82,0.00,,,0.01,Wunderground v.1.15,2013-04-13 00:36:00,
2013-04-12 19:42:00,38.3,33.3,29.83,WSW,257,5.0,11.0,82,0.00,,,0.01,Wunderground v.1.15,2013-04-13 00:42:00,
2013-04-12 19:47:00,38.3,33.3,29.83,West,266,6.0,11.0,82,0.00,,,0.01,Wunderground v.1.15,2013-04-13 00:47:00,
2013-04-12 19:54:00,38.1,33.4,29.83,West,275,6.0,10.0,83,0.00,,,0.01,Wunderground v.1.15,2013-04-13 00:54:00,
2013-04-12 20:00:00,38.1,33.4,29.83,South,185,5.0,5.0,83,0.00,,,0.01,Wunderground v.1.15,2013-04-13 01:00:00,
2013-04-12 20:05:00,38.0,33.6,29.83,West,268,4.0,6.0,84,0.00,,,0.01,Wunderground v.1.15,2013-04-13 01:05:00,
2013-04-12 20:10:00,38.0,33.3,29.83,West,267,4.0,5.0,83,0.00,,,0.01,Wunderground v.1.15,2013-04-13 01:10:00,
2013-04-12 20:15:00,38.0,33.6,29.84,West,277,5.0,9.0,84,0.00,,,0.01,Wunderground v.1.15,2013-04-13 01:15:00,
2013-04-12 20:21:00,38.0,33.3,29.84,West,259,6.0,7.0,83,0.00,,,0.01,Wunderground v.1.15,2013-04-13 01:21:00,
2013-04-12 20:27:00,38.0,33.3,29.84,SSW,192,7.0,13.0,83,0.00,,,0.01,Wunderground v.1.15,2013-04-13 01:27:00,
2013-04-12 20:34:00,38.0,33.0,29.84,WSW,244,8.0,10.0,82,0.00,,,0.01,Wunderground v.1.15,2013-04-13 01:34:00,
2013-04-12 20:39:00,38.0,33.0,29.84,West,281,7.0,12.0,82,0.00,,,0.01,Wunderground v.1.15,2013-04-13 01:39:00,
2013-04-12 20:44:00,38.0,33.0,29.84,WNW,293,7.0,14.0,82,0.00,,,0.01,Wunderground v.1.15,2013-04-13 01:44:00,
2013-04-12 20:50:00,37.9,33.2,29.85,WSW,242,7.0,7.0,83,0.00,,,0.01,Wunderground v.1.15,2013-04-13 01:50:00,
2013-04-12 20:55:00,37.9,32.9,29.85,West,266,8.0,10.0,82,0.00,,,0.01,Wunderground v.1.15,2013-04-13 01:55:00,
2013-04-12 21:02:00,37.9,32.9,29.85,West,267,9.0,9.0,82,0.00,,,0.01,Wunderground v.1.15,2013-04-13 02:02:00,
2013-04-12 21:07:00,37.8,32.8,29.85,WSW,239,8.0,14.0,82,0.00,,,0.01,Wunderground v.1.15,2013-04-13 02:07:00,
2013-04-12 21:12:00,37.8,32.8,29.86,SW,236,8.0,11.0,82,0.00,,,0.01,Wunderground v.1.15,2013-04-13 02:12:00,
2013-04-12 21:17:00,37.7,32.7,29.86,SW,219,8.0,11.0,82,0.00,,,0.01,Wunderground v.1.15,2013-04-13 02:17:00,
2013-04-12 21:22:00,37.6,32.9,29.86,West,265,9.0,10.0,83,0.00,,,0.01,Wunderground v.1.15,2013-04-13 02:22:00,
2013-04-12 21:29:00,37.5,32.8,29.86,West,271,9.0,15.0,83,0.00,,,0.01,Wunderground v.1.15,2013-04-13 02:29:00,
2013-04-12 21:35:00,37.4,33.0,29.87,WNW,290,7.0,9.0,84,0.00,,,0.01,Wunderground v.1.15,2013-04-13 02:35:00,
2013-04-12 21:40:00,37.4,33.0,29.87,West,263,6.0,9.0,84,0.00,,,0.01,Wunderground v.1.15,2013-04-13 02:40:00,
2013-04-12 21:46:00,37.3,33.2,29.87,WSW,239,5.0,9.0,85,0.00,,,0.01,Wunderground v.1.15,2013-04-13 02:46:00,
2013-04-12 21:51:00,37.3,33.2,29.87,WSW,249,5.0,9.0,85,0.00,,,0.01,Wunderground v.1.15,2013-04-13 02:51:00,
2013-04-12 21:57:00,37.3,33.2,29.87,West,273,6.0,9.0,85,0.00,,,0.01,Wunderground v.1.15,2013-04-13 02:57:00,
2013-04-12 22:03:00,37.1,33.3,29.88,WNW,302,6.0,13.0,86,0.00,,,0.01,Wunderground v.1.15,2013-04-13 03:03:00,
2013-04-12 22:08:00,37.0,33.2,29.87,WNW,284,7.0,13.0,86,0.00,,,0.01,Wunderground v.1.15,2013-04-13 03:08:00,
2013-04-12 22:14:00,36.8,33.0,29.88,NW,304,8.0,8.0,86,0.00,,,0.01,Wunderground v.1.15,2013-04-13 03:14:00,
2013-04-12 22:19:00,36.9,32.8,29.88,WSW,258,7.0,9.0,85,0.00,,,0.01,Wunderground v.1.15,2013-04-13 03:19:00,
2013-04-12 22:24:00,36.8,32.7,29.87,NW,319,8.0,9.0,85,0.00,,,0.01,Wunderground v.1.15,2013-04-13 03:24:00,
2013-04-12 22:30:00,36.7,32.6,29.88,West,268,8.0,13.0,85,0.00,,,0.01,Wunderground v.1.15,2013-04-13 03:30:00,
2013-04-12 22:35:00,36.6,32.5,29.88,West,269,8.0,15.0,85,0.00,,,0.01,Wunderground v.1.15,2013-04-13 03:35:00,
2013-04-12 22:40:00,36.6,32.2,29.88,NE,54,9.0,9.0,84,0.00,,,0.01,Wunderground v.1.15,2013-04-13 03:40:00,
2013-04-12 22:46:00,36.6,32.2,29.88,WNW,298,8.0,13.0,84,0.00,,,0.01,Wunderground v.1.15,2013-04-13 03:46:00,
2013-04-12 22:52:00,36.5,32.4,29.88,NNW,329,7.0,8.0,85,0.00,,,0.01,Wunderground v.1.15,2013-04-13 03:52:00,
2013-04-12 22:57:00,36.5,32.4,29.88,WSW,244,7.0,10.0,85,0.00,,,0.01,Wunderground v.1.15,2013-04-13 03:57:00,
2013-04-12 23:00:00,36.5,32.4,29.88,WNW,288,6.0,9.0,85,0.00,,,0.01,Wunderground v.1.15,2013-04-13 04:00:00,
2013-04-12 23:01:00,36.5,32.4,29.88,West,273,6.0,9.0,85,0.00,,,0.01,Wunderground v.1.15,2013-04-13 04:01:00,
2013-04-12 23:05:00,36.5,32.1,29.88,West,271,6.0,13.0,84,0.00,,,0.01,Wunderground v.1.15,2013-04-13 04:05:00,
2013-04-12 23:11:00,36.5,32.1,29.88,WSW,253,6.0,7.0,84,0.00,,,0.01,Wunderground v.1.15,2013-04-13 04:11:00,
2013-04-12 23:16:00,36.4,32.0,29.88,West,279,6.0,12.0,84,0.00,,,0.01,Wunderground v.1.15,2013-04-13 04:16:00,
2013-04-12 23:22:00,36.4,32.0,29.87,WSW,242,7.0,8.0,84,0.00,,,0.01,Wunderground v.1.15,2013-04-13 04:22:00,
2013-04-12 23:29:00,36.3,31.9,29.88,North,360,7.0,9.0,84,0.00,,,0.01,Wunderground v.1.15,2013-04-13 04:29:00,
2013-04-12 23:35:00,36.2,31.5,29.88,West,259,7.0,12.0,83,0.00,,,0.01,Wunderground v.1.15,2013-04-13 04:35:00,
2013-04-12 23:40:00,36.2,31.5,29.88,SSW,199,7.0,10.0,83,0.00,,,0.01,Wunderground v.1.15,2013-04-13 04:40:00,
2013-04-12 23:46:00,36.1,31.7,29.88,WSW,254,7.0,10.0,84,0.00,,,0.01,Wunderground v.1.15,2013-04-13 04:46:00,
2013-04-12 23:52:00,36.1,31.4,29.88,WSW,246,6.0,8.0,83,0.00,,,0.01,Wunderground v.1.15,2013-04-13 04:52:00,
2013-04-12 23:58:00,36.1,31.7,29.88,WSW,258,6.0,8.0,84,0.00,,,0.01,Wunderground v.1.15,2013-04-13 04:58:00,